Regional Weather Roundup
Issued by NWS

Home | Current Version | Previous Version | Text Only | Print | Product List | Glossary On
Versions: 1 2 3 4 5 6 7 8 9 10 11 12 13 14 15 16 17 18 19 20 21 22 23 24 25 26 27 28 29 30 31 32 33 34 35 36 37 38 39 40 41 42 43 44 45 46 47 48 49 50
000
ASUS43 KDMX 260708
RWRIA

WEATHER ROUNDUP FOR IOWA
NATIONAL WEATHER SERVICE DES MOINES IA
200 AM CDT MON SEP 26 2016

NOTE: "FAIR" INDICATES FEW OR NO CLOUDS BELOW 12,000 FEET WITH NO
SIGNIFICANT WEATHER AND/OR OBSTRUCTIONS TO VISIBILITY.

* - THESE STATIONS ARE NOT NWS STATIONS...THUS NOT UNDER NWS
QUALITY CONTROL.  THEY ALSO DO NOT REPORT WEATHER SUCH
AS PRECIPITATION OR FOG.

IAZ001>003-012>014-020>022-031>034-043>046-260800-
   NORTHWEST IOWA

CITY           SKY/WX    TMP DP  RH WIND       PRES   REMARKS
CARROLL *      CLEAR     50  43  76 W8        30.17R
CHEROKEE *     CLEAR     49  39  70 W8        30.17R
DENISON *      CLEAR     45  43  93 CALM      30.18R
LE MARS *      CLEAR     46  39  76 W5        30.19S
ORANGE CITY *  CLEAR     45  41  87 W3        30.17S
SHELDON *      CLEAR     48  39  71 W7        30.14S
SIOUX CITY     PTCLDY    48  40  73 W3        30.20S
SPENCER        CLEAR     48  40  73 W10       30.13S
STORM LAKE *   CLEAR     46  41  81 W9        30.16F
$$

IAZ055>058-069>071-079>083-090>094-260800-
   SOUTHWEST IOWA

CITY           SKY/WX    TMP DP  RH WIND       PRES   REMARKS
ATLANTIC *     CLEAR     52  41  66 NW6       30.20R
AUDUBON *      CLEAR     48  43  81 NW5       30.20R
CLARINDA *       N/A     54  43  66 MISG      30.22S
COUNCIL BLFS * CLEAR     52  41  66 NW5       30.21F
CRESTON *      CLEAR     48  45  87 W6        30.20R
HARLAN  *      PTCLDY    48  43  81 W7        30.23S
LAMONI         CLEAR     51  46  83 W7        30.18S
RED OAK *      CLEAR     50  43  76 NW7       30.21S
SHENANDOAH *   CLEAR     50  45  81 W5        30.22S
$$

IAZ047>049-059>061-072>074-084-260800-
   CENTRAL IOWA

CITY           SKY/WX    TMP DP  RH WIND       PRES   REMARKS
AMES           CLEAR     51  47  86 W9        30.13S
ANKENY *         N/A    N/A N/A N/A MISG        N/A
BOONE *        CLEAR     52  43  71 W9        30.13S
CHARITON *       N/A     52  46  82 W7        30.15S
DES MOINES     CLEAR     55  44  66 NW8       30.14S
GRINNELL*      CLEAR     52  47  83 W7        30.12S
KNOXVILLE *    CLEAR     52  46  82 W7        30.13S
MARSHALLTOWN   CLEAR     50  47  89 W6        30.10S
NEWTON *       CLEAR     52  48  87 W7        30.12S
PELLA *        CLEAR     55  47  73 NW8       30.14S
PERRY *          N/A     49  46  88 W6        30.16S
$$

IAZ004>006-015-016-023>025-035-036-260800-
   NORTH CENTRAL IOWA

CITY           SKY/WX    TMP DP  RH WIND       PRES   REMARKS
ALGONA *       CLEAR     50  43  76 W10       30.10F
CLARION *      CLEAR     50  45  81 W7        30.10F
ESTHERVILLE    CLEAR     51  39  63 W9        30.10S
FORT DODGE *   CLEAR     50  41  71 W7        30.13S
MASON CITY     CLEAR     50  43  77 W13       30.08F
FOREST CITY *    N/A     50  41  71 W9G16     30.07S
WEBSTER CITY * CLEAR     48  45  87 W7        30.10F
IOWA FALLS *     N/A     50  45  84 W7        30.11S
$$

IAZ007>011-017>019-026>030-037>042-050>054-066-260800-
   NORTHEAST IOWA

CITY           SKY/WX    TMP DP  RH WIND       PRES   REMARKS
CEDAR RAPIDS   CLOUDY    56  50  80 W13       30.07S
CHARLES CITY * CLEAR     52  46  82 W8        30.06S
CLINTON *      CLOUDY    58  53  84 W7        30.05S
DECORAH *      CLEAR     52  48  87 VRB7      30.01S
DUBUQUE        CLOUDY    57  50  77 W13       30.03F
MONTICELLO *   CLOUDY    57  50  77 W12G20    30.04F
OELWEIN *      CLEAR     52  48  87 W8        30.06F
WATERLOO       CLEAR     54  46  74 W7        30.06S
$$

IAZ064-065-067-068-078-260800-
   EAST CENTRAL IOWA

CITY           SKY/WX    TMP DP  RH WIND       PRES   REMARKS
DAVENPORT      CLOUDY    58  51  78 W6        30.06S
IOWA CITY      CLOUDY    59  50  72 W9        30.09S
MT. PLEASANT * CLOUDY    60  53  78 W5        30.11S
MUSCATINE *    CLOUDY    61  50  67 W7        30.09R
QUAD CITIES    CLOUDY    61  51  70 W9        30.05F
$$

IAZ062-063-075>077-085>089-095>099-260800-
   SOUTHEAST IOWA

CITY           SKY/WX    TMP DP  RH WIND       PRES   REMARKS
BURLINGTON     CLOUDY    59  51  75 W5        30.10S
FAIRFIELD *    CLOUDY    59  50  72 W7        30.11R
FORT MADISON * CLOUDY    59  52  77 W5        30.11S
KEOKUK *       CLOUDY    59  52  77 W7        30.11R
OSKALOOSA *      N/A     53  49  87 W7        30.13R
OTTUMWA        CLOUDY    54  48  80 W9        30.12R
WASHINGTON *     N/A    N/A N/A N/A MISG        N/A
$$

ABBREVIATIONS USED IN REMARKS
   TC - TEMPERATURES IN CELSIUS
  WCI - WIND CHILL INDEX
   HX - HEAT INDEX
  VSB - VISIBILITY
$$





USA.gov is the U.S. government's official web portal to all federal, state and local government web resources and services.